{"data":{"norad_id":64588,"epoch":"2026-09-21T20:46:51.822912Z","epoch_age_seconds":59629,"freshness":"FRESH","line1":"1 64588U 25135BN  26264.86587758  .00001865  00000+0  17569-3 0  9991","line2":"2 64588  97.7827  18.7181 0004970  41.9118 318.2483 14.95022823 68350","mean_motion":14.95022823,"eccentricity":0.000497,"inclination_deg":97.7827,"raan_deg":18.7181,"arg_perigee_deg":41.9118,"mean_anomaly_deg":318.2483,"bstar":0.00017569,"rev_number":6835,"period_min":96.319599797842,"perigee_km":578.84257338774,"apogee_km":585.76124966579,"semimajor_km":6960.4389115268,"source":"CELESTRAK","updated_at":"2026-09-22T09:00:29.856356Z"}}